Location: Clifton Park
(41.4873°N, 81.8024°W)
Time: 18:54:40
(UTC+00:00)

ADEOS Rocket - Pass Details

Date: 21 January 2020
Orbit: 859 x 1306 km, 98.7° (Epoch: 15 February)

Event Time Altitude Azimuth Distance (km) Brightness Sun altitude
Rises 00:36:47 0° 13° (NNE) 3,772 5.9 -23.9°
Reaches altitude 10° 00:39:10 10° 14° (NNE) 2,874 5.3 -24.3°
Maximum altitude 00:45:46 89° 111° (ESE) 1,143 3.2 -25.6°
Drops below altitude 10° 00:53:03 10° 196° (SSW) 3,166 5.9 -26.9°
Sets 00:55:47 0° 196° (SSW) 4,175 6.5 -27.4°
